Weather History for West Palm Beach, FL

Change the Weather History Date:

Tuesday, September 3, 2013

  Actual Average Record
Temperature  
Mean Temperature 83 °F 82 °F  
Max Temperature 92 °F 89 °F 96 °F (1951)
Min Temperature 73 °F 76 °F 69 °F (1996)
Degree Days  
Heating Degree Days 0 0  
Month to date heating degree days 0 0  
Since 1 July heating degree days 0 0  
Cooling Degree Days 18 17  
Month to date cooling degree days 54 51  
Year to date cooling degree days 2938 2757  
Growing Degree Days 32 (Base 50)    
Moisture  
Dew Point 71 °F    
Average Humidity 73    
Maximum Humidity 94    
Minimum Humidity 52    
Precipitation  
Precipitation 0.00 in 0.29 in 2.17 in (1979)
Month to date precipitation 0.53 0.87  
Year to date precipitation 48.15 41.59  
Snow  
Snow 0.00 in - - ()
Month to date snowfall 0.0  
Since 1 July snowfall 0.0  
Since 1 September snowfall 0.0  
Snow Depth 0.00 in    
Sea Level Pressure  
Sea Level Pressure 29.98 in    
Wind  
Wind Speed 5 mph (ESE)    
Max Wind Speed 13 mph    
Max Gust Speed 17 mph    
Visibility 10 miles    
Events      
T = Trace of Precipitation, MM = Missing Value Source: NWS Daily Summary

Daily Weather History Graph

Daily Weather History Graph

Search for Another Location

Airport:

Trip Planner

Search our weather history database for the weather conditions in past years. The results will help you decide how hot, cold, wet, or windy it might be!

Date:

Astronomy

Sep. 03, 2013 Rise Set
Actual Time 7:00 AM EDT 7:37 PM EDT
Civil Twilight 6:37 AM EDT 8:01 PM EDT
Nautical Twilight 6:09 AM EDT 8:28 PM EDT
Astronomical Twilight 5:41 AM EDT 8:56 PM EDT
Moon 5:18 AM EDT (9/3) 6:22 PM EDT (9/3)
Length of Visible Light 13h 23m
Length of Day
12h 36m
Waning Crescent, 3% of the Moon is Illuminated
Sep 3
Waning Crescent
Sep 5
New
Sep 12
First Quarter
Sep 19
Full
Sep 26
Last Quarter

Hourly Weather History & Observations

Time (EDT) Temp. Heat Index Dew Point Humidity Pressure Visibility Wind Dir Wind Speed Gust Speed Precip Events Conditions
12:53 AM 77.0 °F - 71.1 °F 82% 29.99 in 10.0 mi Calm Calm - N/A   Mostly Cloudy
1:53 AM 77.0 °F - 71.1 °F 82% 29.98 in 10.0 mi Calm Calm - N/A   Scattered Clouds
2:53 AM 75.0 °F - 70.0 °F 84% 29.97 in 10.0 mi Calm Calm - N/A   Scattered Clouds
3:53 AM 73.9 °F - 69.1 °F 85% 29.95 in 10.0 mi WNW 4.6 mph - N/A   Partly Cloudy
4:53 AM 75.0 °F - 71.1 °F 87% 29.94 in 10.0 mi Calm Calm - N/A   Partly Cloudy
5:53 AM 75.0 °F - 71.1 °F 87% 29.95 in 10.0 mi Calm Calm - N/A   Partly Cloudy
6:53 AM 73.0 °F - 70.0 °F 90% 29.96 in 10.0 mi Calm Calm - N/A   Scattered Clouds
7:53 AM 75.9 °F - 73.0 °F 91% 29.98 in 10.0 mi Calm Calm - N/A   Scattered Clouds
8:53 AM 81.0 °F 85.8 °F 73.0 °F 77% 29.99 in 10.0 mi Calm Calm - N/A   Scattered Clouds
9:53 AM 84.9 °F 90.7 °F 72.0 °F 65% 30.00 in 10.0 mi Calm Calm - N/A   Scattered Clouds
10:53 AM 88.0 °F 94.7 °F 72.0 °F 59% 30.02 in 10.0 mi Variable 3.5 mph - N/A   Scattered Clouds
11:53 AM 90.0 °F 96.4 °F 71.1 °F 54% 30.03 in 10.0 mi WNW 4.6 mph - N/A   Scattered Clouds
12:53 PM 89.1 °F 93.7 °F 69.1 °F 52% 30.02 in 10.0 mi NNW 5.8 mph - N/A   Mostly Cloudy
1:53 PM 91.0 °F 97.6 °F 71.1 °F 52% 29.99 in 10.0 mi East 9.2 mph - N/A   Scattered Clouds
2:53 PM 90.0 °F 95.4 °F 70.0 °F 52% 29.97 in 10.0 mi East 10.4 mph - N/A   Mostly Cloudy
3:53 PM 90.0 °F 95.4 °F 70.0 °F 52% 29.96 in 10.0 mi ESE 11.5 mph - N/A   Scattered Clouds
4:53 PM 88.0 °F 92.1 °F 69.1 °F 53% 29.95 in 10.0 mi ESE 12.7 mph - N/A   Mostly Cloudy
5:53 PM 87.1 °F 91.3 °F 69.1 °F 55% 29.97 in 10.0 mi ESE 6.9 mph - N/A   Mostly Cloudy
6:53 PM 86.0 °F 90.7 °F 70.0 °F 59% 29.96 in 10.0 mi ESE 6.9 mph - N/A   Mostly Cloudy
7:53 PM 84.9 °F 90.1 °F 71.1 °F 63% 29.97 in 10.0 mi SE 5.8 mph - N/A   Mostly Cloudy
8:53 PM 84.0 °F 90.2 °F 73.0 °F 69% 29.99 in 10.0 mi SE 6.9 mph - N/A   Mostly Cloudy
9:53 PM 84.0 °F 91.2 °F 73.9 °F 72% 30.00 in 10.0 mi SE 9.2 mph - N/A   Scattered Clouds
10:53 PM 84.0 °F 91.2 °F 73.9 °F 72% 30.02 in 10.0 mi SE 6.9 mph - N/A   Scattered Clouds
11:53 PM 84.0 °F 91.2 °F 73.9 °F 72% 30.01 in 10.0 mi SE 5.8 mph - N/A   Mostly Cloudy